Temperature
16 16 15 15 15 15 15 15 15 15 15 15 15 15 15 15 15 14 15 15 15 15 15 15 15 15 15 15 15 15 15 15 15 15 15 15 15 15 15 15 15 15 15
15 15 15 15 15 15 15 15 15 15 15 15 15 15 15 15 14 14 14 15 15 15 15 15 15 15 15 15 15 15 15 15 15 15 15 14 15 15 14 15 15 15 15
15 15 15 15 15 15 15 15 15 15 15 14 14 14 14 14 14 14 14 14 14 15 15 15 15 15 15 15 15 14 14 14 14 14 14 14 14 14 14 14 14 14 14
15 15 15 15 15 15 15 15 15 14 14 14 14 14 14 14 14 14 14 14 14 14 14 14 14 14 14 14 14 14 14 14 14 14 14 14 14 14 14 14 14 14 14
15 15 15 15 15 15 15 14 14 14 14 14 14 14 14 14 14 14 14 14 14 14 14 14 14 14 14 14 14 14 14 14 14 14 14 14 14 14 14 14 14 14 14
15 15 15 15 14 14 14 14 14 14 14 14 14 14 14 14 14 14 13 14 14 14 14 14 14 14 14 14 14 14 14 14 14 14 14 14 13 13 13 13 13 13 13
15 15 15 14 14 14 14 14 14 14 14 14 14 14 14 14 14 14 13 13 13 13 13 14 13 13 13 14 14 14 14 14 13 13 13 13 13 13 13 13 13 13 13
15 15 14 14 14 14 14 14 14 14 13 13 14 14 14 14 13 13 13 13 13 13 13 13 13 13 13 13 13 13 13 13 13 13 13 13 13 13 13 13 13 13 13
15 14 14 14 14 14 14 14 14 13 13 13 13 14 14 15 14 13 13 13 13 13 13 13 13 13 13 13 13 13 13 13 13 13 13 13 13 13 13 13 13 13 13
14 14 14 14 14 14 14 13 13 13 13 13 13 13 13 13 14 14 13 13 13 13 13 13 13 13 13 13 13 13 13 13 13 13 13 13 13 13 13 13 13 13 13
14 14 14 14 14 14 13 13 13 13 13 13 13 13 13 13 13 14 14 13 13 13 13 12 12 12 12 12 12 12 13 13 13 13 13 13 13 13 13 13 12 12 12
14 14 14 14 14 13 13 13 13 13 13 13 13 13 13 13 13 13 13 13 13 13 12 12 12 12 12 12 12 12 13 13 13 13 13 13 12 12 12 12 12 12 12
14 14 14 14 13 13 13 13 13 13 13 13 13 13 13 13 13 13 13 13 13 12 12 12 12 12 12 12 12 12 12 12 12 12 12 12 12 12 12 12 12 12 12
14 14 14 14 13 13 13 13 13 13 13 13 12 12 12 12 12 12 12 12 13 13 12 12 12 12 12 12 12 12 12 12 12 12 12 12 12 12 12 12 12 12 12
14 14 14 14 13 13 13 13 13 13 13 13 12 12 12 12 12 12 12 12 12 13 12 12 11 11 11 11 12 11 11 11 12 12 12 12 12 12 12 12 12 12 12
14 14 14 14 13 13 13 13 13 13 12 12 12 12 12 12 12 12 12 12 12 12 12 12 11 11 11 11 11 11 11 11 11 11 11 12 12 12 12 12 12 12 12
14 14 13 13 13 13 13 13 13 12 12 12 12 12 12 12 12 11 12 11 11 11 11 11 11 11 11 11 11 11 11 11 11 11 11 11 11 11 11 11 11 12 12
14 13 13 13 13 13 13 13 12 12 12 12 12 12 12 12 11 11 11 11 11 11 11 11 11 11 10 10 11 11 10 10 10 11 11 11 11 11 11 11 11 11 11
13 13 13 13 13 12 12 12 12 12 12 12 12 12 12 12 11 11 11 11 11 11 11 11 11 11 10 10 10 10 10 10 10 10 11 11 11 11 11 11 11 11 11
13 13 13 13 12 12 12 12 12 12 12 12 12 11 12 12 11 11 11 11 11 11 11 10 10 10 10 10 10 10 10 10 10 10 10 10 10 11 11 11 11 11 11
13 13 12 12 12 12 12 12 12 12 11 11 11 11 11 11 11 11 11 11 10 10 10 10 10 10 10 10 10 10 10 10 10 10 10 10 10 10 10 10 10 10 10
12 12 12 12 12 12 12 12 11 11 11 11 11 11 11 11 11 11 11 11 10 10 10 10 10 10 10 10 10 10 9 9 9 10 9 9 9 10 10 10 10 10 10
12 12 12 12 12 12 12 12 11 11 11 11 11 11 11 11 10 10 10 10 10 10 10 10 10 10 10 10 10 9 9 9 9 9 9 9 9 9 9 10 10 10 10
12 12 12 12 11 12 12 11 11 11 10 11 10 10 10 10 10 10 10 10 10 10 10 10 9 9 9 9 9 9 9 9 9 9 9 9 9 9 9 9 9 10 10
11 11 11 11 11 11 11 11 11 10 10 10 10 10 10 10 10 10 10 10 10 10 10 10 10 9 10 9 9 9 9 8 8 9 9 8 8 8 9 9 9 9 9
11 11 11 11 11 11 11 11 11 10 10 10 10 10 10 10 10 10 10 9 9 9 9 9 9 9 9 9 9 9 9 8 8 8 8 8 8 8 8 8 9 9 9
Wind_Speed
4 4 5 5 5 5 5 4 5 6 6 6 6 6 6 6 6 6 7 10 10 9 9 9 9 8 7 6 5 5 4 4 4 3 3 3 3 3 2 2 2 2 1
4 4 4 4 4 4 4 4 5 5 5 5 5 6 6 6 6 6 6 8 10 9 8 8 7 7 7 7 6 5 5 4 4 4 3 3 3 3 2 1 1 1 1
4 4 3 4 4 4 4 4 5 4 4 4 5 5 5 5 5 6 6 5 6 8 8 8 7 7 7 6 6 6 5 5 4 4 3 3 2 2 2 1 1 1 2
3 4 3 3 3 3 3 3 3 3 3 3 4 4 4 4 5 5 5 5 5 5 6 7 7 6 6 6 5 5 5 5 4 4 4 3 3 2 2 2 2 2 2
3 3 2 2 3 2 2 2 2 2 3 3 3 3 3 3 3 4 4 5 5 4 4 5 5 6 5 5 5 4 4 3 4 3 3 3 3 3 3 2 2 2 2
2 2 2 1 2 2 2 2 2 2 2 2 2 2 2 2 2 3 3 3 4 4 4 4 3 3 4 4 4 3 3 3 3 3 3 3 3 3 3 3 3 2 2
2 2 1 1 1 1 1 1 2 2 1 1 1 2 2 1 2 2 2 2 3 3 3 3 3 3 2 3 3 3 4 2 3 2 2 3 3 4 4 4 3 3 3
1 1 1 1 1 1 1 1 1 1 1 0 0 0 1 1 1 1 1 1 2 2 3 3 3 3 3 2 4 3 3 3 3 2 2 3 3 3 3 3 3 3 3
1 0 0 0 1 1 1 0 1 1 1 1 1 1 1 0 0 1 1 1 2 2 2 2 3 3 3 2 2 3 3 3 3 2 2 3 4 4 3 1 2 2 3
1 1 1 1 1 1 1 1 1 1 1 1 0 1 2 1 1 0 1 1 1 1 2 2 2 3 3 2 3 4 4 3 3 3 2 3 4 5 3 2 2 2 2
1 1 1 2 1 1 1 1 1 2 2 2 1 0 1 1 3 2 1 1 0 0 1 1 2 2 3 3 2 5 4 3 4 3 3 3 4 5 4 3 3 3 3
1 1 2 2 2 2 2 2 2 3 2 2 2 1 1 1 2 2 2 2 1 1 1 1 1 2 2 2 3 6 4 3 3 3 3 3 3 3 3 4 3 3 4
2 2 2 3 3 2 3 3 3 3 3 3 3 2 2 2 2 2 2 2 2 1 1 1 1 1 2 2 2 3 3 3 3 3 3 3 2 2 3 3 3 3 3
2 2 3 3 3 3 3 4 4 4 3 4 4 3 2 2 2 2 2 2 2 2 2 1 0 1 1 1 2 0 2 3 3 3 3 3 2 2 2 2 2 3 3
2 3 3 4 4 4 4 4 4 4 4 4 4 4 3 2 2 2 2 2 3 3 3 1 1 1 1 1 1 1 0 3 2 2 2 2 3 2 1 1 2 2 2
3 3 4 4 4 4 5 5 4 4 4 4 3 4 3 3 2 2 3 2 3 3 3 2 1 1 1 1 1 2 1 3 2 1 1 1 2 3 2 1 2 2 1
4 4 4 4 4 4 4 4 5 5 5 4 5 5 4 3 3 3 3 3 3 3 3 2 1 1 2 2 1 2 2 2 2 2 1 1 1 2 2 2 2 1 2
4 4 4 4 4 4 4 5 5 5 5 5 5 5 4 3 4 4 3 3 3 3 3 3 2 2 2 2 2 2 2 2 1 3 2 1 1 1 1 2 2 2 2
4 4 4 4 4 4 4 5 6 6 6 5 5 5 5 5 5 4 4 4 3 3 3 3 2 1 2 2 2 2 2 2 1 1 2 2 1 1 0 0 1 1 1
5 5 5 5 5 4 5 5 6 6 6 6 6 6 5 5 5 5 5 5 4 3 3 3 3 2 2 2 3 3 2 2 2 1 1 1 2 3 2 1 0 0 0
5 5 5 5 5 5 4 5 5 6 6 6 6 6 5 4 3 4 4 4 4 4 4 4 4 3 3 3 3 3 3 2 2 2 1 2 2 2 3 3 2 1 1
5 5 5 5 5 4 3 4 6 6 6 7 7 6 6 6 5 6 5 5 5 5 5 5 4 5 5 4 3 4 3 3 3 2 3 2 2 2 2 2 2 3 2
6 6 5 6 6 5 4 5 7 7 7 7 7 6 5 5 6 7 8 9 8 7 7 7 7 6 5 5 5 5 5 4 4 1 2 3 3 3 3 2 2 3 2
5 5 6 6 6 5 4 6 7 8 8 8 8 8 8 7 6 7 7 8 8 8 8 8 8 7 5 4 5 6 5 4 4 2 3 4 3 4 3 3 4 4 4
5 5 5 6 7 6 5 6 7 7 7 8 8 7 7 8 5 6 8 8 8 7 7 7 6 4 2 3 4 4 4 4 4 4 3 3 3 3 4 3 4 6 6
5 5 5 6 7 7 4 5 8 6 7 6 6 7 6 6 5 7 9 9 9 8 7 7 7 7 7 7 8 7 6 5 4 4 3 4 3 2 3 3 3 4 6
Wind_Direction
71 77 78 77 74 74 75 72 71 69 65 63 63 61 62 63 66 67 70 63 59 60 64 67 69 70 75 77 78 77 78 74 72 76 75 70 60 52 55 53 27 10 6
74 69 72 74 73 71 69 75 76 73 68 65 62 60 58 61 64 66 70 72 65 58 58 61 63 64 69 73 74 74 71 72 74 69 64 53 50 32 20 14 1 2 349
71 74 71 76 76 80 80 71 75 72 73 74 70 61 57 54 59 63 64 64 73 69 60 54 56 58 59 61 62 63 64 65 69 58 50 39 35 21 5 2 4 349 329
65 68 68 73 79 78 81 79 74 79 78 70 68 65 65 60 55 56 62 61 56 63 72 59 51 52 53 57 58 54 57 59 65 60 47 38 35 18 1 351 336 325 319
66 78 69 64 81 86 79 77 74 74 77 71 76 70 63 59 55 55 57 54 55 51 60 75 66 51 44 48 52 45 46 58 62 56 45 38 31 19 356 340 325 314 309
58 78 93 92 84 88 82 88 84 75 72 77 80 73 58 61 55 51 48 52 45 43 42 43 58 78 59 43 40 39 39 54 56 57 52 44 29 14 1 354 343 325 312
61 78 68 66 65 83 90 107 105 115 104 75 101 94 95 89 66 57 45 45 48 40 42 41 36 36 73 83 49 34 36 58 52 49 46 37 23 9 8 14 22 29 20
86 84 82 87 99 91 92 96 144 157 136 183 277 230 153 146 104 62 58 35 32 46 37 34 38 35 18 38 65 56 42 44 41 44 41 34 20 3 4 18 18 25 27
117 132 104 67 103 136 109 161 195 197 176 164 330 319 308 25 70 155 73 50 38 25 32 29 24 24 17 32 58 77 55 42 32 36 46 36 25 14 8 23 47 39 34
161 177 200 216 196 173 164 205 217 239 236 215 161 313 324 348 275 232 176 88 37 16 17 20 12 21 23 35 55 59 60 47 40 42 49 38 30 29 31 58 73 57 27
197 197 214 215 213 202 202 211 230 259 252 254 239 240 308 290 279 276 270 285 294 31 21 5 5 17 25 30 47 61 62 47 46 45 42 37 37 35 45 60 63 51 50
209 206 221 226 225 221 215 220 219 231 255 256 254 245 246 268 278 273 277 280 296 319 347 358 352 14 16 17 54 62 56 44 49 46 37 31 33 38 58 74 68 63 70
221 222 226 236 239 235 228 225 229 234 238 243 245 251 253 264 288 281 281 289 290 277 273 260 345 8 2 7 64 65 72 51 44 41 34 21 29 48 66 68 59 60 62
237 242 243 247 245 242 235 229 236 236 240 240 243 244 248 251 272 269 279 282 279 268 260 259 248 322 356 347 56 297 109 87 51 40 30 21 48 78 74 63 44 38 43
249 246 243 245 244 243 239 231 234 232 238 240 240 237 243 241 251 264 253 256 272 275 268 263 257 292 315 338 52 270 191 96 65 32 27 36 62 84 73 52 33 20 26
250 247 246 248 244 238 229 225 232 233 232 230 240 241 239 241 243 243 241 249 260 271 279 283 280 259 289 267 288 279 306 136 144 89 40 46 61 55 42 37 40 33 24
251 250 257 261 257 241 223 215 227 225 234 230 223 226 226 235 233 232 235 236 244 257 266 277 268 241 240 270 267 280 276 252 181 131 90 68 74 56 45 44 38 39 43
262 262 262 263 260 251 240 224 222 223 229 234 232 230 230 221 226 226 225 230 235 249 255 268 249 243 248 271 289 280 265 266 261 117 121 122 110 67 54 49 30 27 36
260 259 258 259 259 253 242 233 228 228 229 232 233 235 235 226 223 218 218 224 225 233 251 250 254 255 253 256 272 271 254 256 262 134 165 185 176 158 107 79 54 43 35
260 264 259 257 256 250 244 239 235 234 233 233 234 236 236 232 228 224 221 223 223 224 231 240 244 242 243 250 254 256 247 237 245 261 244 213 182 192 197 210 169 115 28
254 256 258 257 253 246 245 249 241 237 239 239 238 237 234 235 257 243 236 231 225 228 228 236 242 243 238 233 247 247 250 258 244 252 262 238 215 221 204 208 211 200 175
253 253 256 254 250 243 230 241 254 241 241 243 243 240 229 216 216 217 226 239 243 236 234 236 247 247 248 240 240 244 239 251 256 233 255 259 239 254 240 238 173 177 195
255 252 253 253 252 247 217 222 235 250 248 249 249 243 233 227 224 226 214 214 226 237 243 247 248 251 254 242 236 241 237 246 259 243 244 256 243 254 250 246 157 194 216
258 254 254 252 252 249 226 227 230 240 247 249 249 247 239 232 224 232 230 224 227 225 228 235 247 252 255 249 237 243 242 243 253 223 231 256 252 257 253 234 189 210 227
263 261 259 256 254 250 227 231 234 239 242 247 247 246 244 239 200 215 235 235 232 229 217 230 260 270 282 254 242 232 220 223 242 232 217 252 262 263 256 239 215 210 224
266 267 264 261 258 259 237 234 239 241 243 244 244 241 237 245 219 208 231 237 237 234 227 219 226 224 227 213 212 225 225 230 242 240 211 234 246 249 255 237 234 224 229
Height
1533 1533 1532 1532 1532 1532 1532 1531 1531 1531 1531 1531 1531 1531 1531 1531 1531 1531 1530 1530 1529 1529 1529 1529 1528 1528 1527 1527 1526 1526 1526 1526 1526 1525 1525 1525 1525 1525 1525 1525 1524 1524 1524
1535 1534 1534 1534 1533 1533 1533 1533 1533 1532 1532 1532 1532 1532 1532 1532 1532 1531 1531 1531 1530 1530 1530 1529 1529 1528 1528 1527 1527 1526 1526 1526 1525 1525 1525 1525 1524 1524 1524 1524 1523 1523 1523
1536 1536 1536 1535 1535 1535 1534 1534 1534 1533 1533 1533 1533 1533 1532 1532 1533 1532 1532 1531 1531 1530 1530 1529 1529 1528 1528 1527 1527 1526 1526 1525 1525 1524 1524 1523 1523 1523 1522 1522 1522 1521 1521
1537 1537 1536 1536 1536 1536 1535 1535 1535 1534 1534 1534 1534 1533 1533 1533 1533 1532 1532 1532 1531 1531 1530 1529 1529 1528 1527 1527 1526 1526 1525 1525 1524 1524 1523 1522 1522 1521 1521 1521 1520 1520 1519
1538 1538 1537 1537 1537 1536 1536 1536 1535 1535 1535 1534 1534 1534 1534 1533 1533 1533 1532 1532 1531 1531 1530 1529 1528 1528 1527 1526 1526 1525 1524 1524 1523 1523 1522 1521 1521 1520 1520 1519 1519 1518 1517
1538 1538 1537 1537 1537 1537 1536 1536 1535 1535 1535 1534 1535 1534 1534 1533 1533 1533 1532 1532 1532 1531 1530 1529 1529 1527 1526 1526 1525 1524 1523 1523 1522 1522 1521 1520 1520 1519 1518 1518 1517 1516 1515
1538 1538 1538 1537 1537 1537 1536 1536 1535 1535 1535 1535 1535 1535 1534 1534 1534 1533 1533 1532 1532 1531 1530 1529 1528 1527 1526 1525 1524 1523 1522 1522 1521 1521 1520 1519 1518 1517 1517 1516 1515 1514 1514
1538 1538 1537 1537 1536 1536 1536 1536 1535 1535 1535 1535 1535 1535 1535 1536 1534 1533 1533 1532 1531 1530 1529 1529 1528 1527 1526 1525 1523 1522 1522 1521 1520 1520 1519 1518 1517 1515 1514 1514 1514 1514 1513
1537 1537 1537 1536 1536 1536 1536 1535 1535 1534 1534 1534 1534 1535 1535 1534 1534 1534 1533 1532 1531 1530 1529 1528 1527 1526 1525 1524 1523 1522 1521 1521 1520 1519 1518 1517 1515 1512 1511 1511 1512 1513 1513
1537 1536 1536 1535 1535 1535 1535 1535 1535 1534 1534 1534 1533 1533 1534 1533 1534 1533 1533 1532 1531 1530 1529 1527 1526 1525 1524 1523 1522 1521 1521 1520 1519 1519 1517 1516 1514 1510 1508 1509 1511 1512 1512
1536 1535 1535 1534 1534 1534 1534 1534 1533 1533 1533 1533 1533 1533 1532 1532 1532 1532 1531 1531 1530 1529 1528 1527 1526 1525 1523 1522 1521 1520 1520 1519 1519 1518 1517 1516 1514 1511 1510 1510 1511 1512 1511
1534 1534 1533 1533 1533 1533 1532 1532 1532 1531 1532 1532 1532 1532 1532 1531 1531 1531 1530 1530 1529 1528 1527 1526 1525 1524 1522 1522 1520 1519 1519 1519 1518 1517 1516 1515 1514 1512 1512 1511 1511 1511 1511
1533 1533 1532 1532 1531 1531 1531 1530 1530 1530 1530 1530 1530 1530 1530 1530 1530 1530 1529 1528 1528 1527 1526 1525 1524 1523 1522 1521 1520 1519 1518 1518 1517 1517 1516 1515 1513 1512 1512 1512 1511 1511 1511
1531 1531 1530 1530 1529 1528 1528 1528 1528 1528 1528 1528 1528 1528 1528 1528 1528 1528 1528 1527 1526 1526 1525 1525 1523 1522 1521 1520 1519 1518 1517 1517 1517 1516 1515 1514 1512 1512 1512 1511 1511 1511 1510
1529 1528 1528 1527 1526 1525 1525 1525 1525 1525 1526 1526 1526 1526 1526 1526 1526 1526 1525 1526 1526 1525 1524 1523 1522 1521 1519 1518 1518 1518 1517 1516 1516 1515 1514 1513 1511 1511 1511 1511 1511 1510 1510
1527 1526 1525 1525 1523 1522 1522 1522 1522 1523 1523 1523 1523 1523 1523 1524 1523 1523 1523 1523 1523 1524 1523 1522 1520 1519 1518 1517 1516 1517 1516 1515 1515 1514 1513 1512 1511 1511 1511 1510 1510 1509 1509
1524 1523 1522 1521 1520 1519 1519 1519 1519 1520 1520 1521 1521 1521 1521 1521 1521 1521 1521 1521 1521 1521 1521 1520 1519 1518 1517 1516 1515 1515 1515 1515 1514 1513 1512 1512 1511 1510 1510 1509 1509 1508 1507
1521 1520 1520 1519 1518 1517 1517 1517 1517 1517 1518 1518 1518 1519 1519 1518 1518 1519 1518 1519 1519 1519 1519 1518 1517 1516 1516 1515 1513 1513 1513 1513 1513 1512 1511 1511 1510 1510 1509 1508 1507 1507 1507
1518 1517 1517 1516 1515 1514 1514 1514 1514 1515 1515 1515 1516 1516 1516 1516 1516 1516 1516 1516 1516 1516 1516 1516 1515 1514 1514 1513 1512 1511 1512 1511 1511 1511 1510 1510 1509 1508 1508 1507 1506 1506 1506
1515 1514 1513 1513 1512 1512 1511 1511 1512 1512 1512 1513 1513 1513 1513 1513 1513 1514 1514 1514 1514 1514 1514 1514 1514 1513 1512 1511 1511 1510 1510 1510 1510 1509 1509 1508 1508 1507 1506 1506 1505 1505 1504
1512 1511 1510 1510 1509 1509 1508 1508 1508 1509 1509 1510 1510 1510 1510 1510 1510 1510 1511 1511 1511 1511 1512 1512 1511 1511 1510 1509 1509 1508 1508 1508 1508 1508 1507 1507 1506 1505 1504 1504 1503 1503 1503
1508 1507 1506 1506 1505 1505 1505 1504 1505 1505 1506 1506 1506 1507 1507 1506 1506 1507 1507 1507 1508 1509 1509 1509 1509 1509 1508 1508 1507 1506 1506 1506 1506 1506 1505 1505 1505 1504 1503 1503 1502 1501 1501
1504 1503 1503 1502 1502 1501 1501 1501 1501 1501 1502 1502 1503 1503 1503 1503 1503 1504 1504 1504 1505 1505 1505 1506 1506 1506 1506 1505 1504 1504 1504 1504 1504 1504 1503 1503 1502 1502 1501 1500 1500 1499 1499
1500 1499 1499 1498 1498 1498 1497 1497 1497 1498 1498 1498 1499 1499 1499 1499 1499 1500 1501 1501 1501 1501 1501 1502 1503 1503 1503 1502 1501 1501 1501 1501 1501 1500 1500 1500 1500 1499 1499 1498 1497 1497 1496
1496 1495 1494 1494 1494 1493 1493 1493 1493 1494 1494 1494 1494 1494 1495 1495 1495 1495 1497 1497 1498 1498 1497 1498 1498 1498 1498 1498 1498 1498 1498 1498 1498 1498 1497 1497 1497 1496 1496 1495 1495 1494 1494
1492 1491 1490 1490 1489 1489 1489 1489 1489 1489 1489 1490 1489 1490 1490 1490 1491 1491 1492 1493 1493 1494 1494 1494 1494 1494 1494 1494 1494 1494 1494 1495 1495 1495 1494 1494 1494 1494 1493 1492 1492 1491 1491